Pecos, TX

4:51 AM CST on January 22, 2018 (GMT -0600)
Pecos Municipal

Weather History for KPEQ - February, 2014

Change the Weather History Date:

Saturday, February 1, 2014

  Actual Average Record
Temperature  
Mean Temperature 53 °F -  
Max Temperature 74 °F 61 °F 85 °F (1963)
Min Temperature 32 °F 31 °F 0 °F (1951)
Degree Days  
Heating Degree Days 12    
Growing Degree Days 3 (Base 50)    
Moisture  
Dew Point 30 °F    
Average Humidity 43    
Maximum Humidity 75    
Minimum Humidity 20    
Precipitation  
Precipitation 0.00 in - - ()
Sea Level Pressure  
Sea Level Pressure 29.79 in    
Wind  
Wind Speed 4 mph (ENE)    
Max Wind Speed 16 mph    
Max Gust Speed 21 mph    
Visibility 10 miles    
Events      
Averages and records for this station are not official NWS values.
T = Trace of Precipitation, MM = Missing Value Source: NWS Daily Summary

Daily Weather History Graph

Daily Weather History Graph

Search for Another Location

Airport or City:

Trip Planner

Search our weather history database for the weather conditions in past years. The results will help you decide how hot, cold, wet, or windy it might be!

Date:

Astronomy

Feb. 01, 2014 Rise Set
Actual Time 7:46 AM CST 6:29 PM CST
Civil Twilight 7:21 AM CST 6:54 PM CST
Nautical Twilight 6:52 AM CST 7:23 PM CST
Astronomical Twilight 6:23 AM CST 7:52 PM CST
Moon 8:48 AM CST (2/1) 8:53 PM CST (2/1)
Length of Visible Light 11h 33m
Length of Day
10h 42m
Waxing Crescent, 5% of the Moon is Illuminated
Feb 1
Waxing Crescent
Feb 6
First Quarter
Feb 14
Full
Feb 22
Last Quarter
Mar 1
New

Hourly Weather History & Observations

Time (CST) Temp. Windchill Dew Point Humidity Pressure Visibility Wind Dir Wind Speed Gust Speed Precip Events Conditions
12:15 AM 48.6 °F - 28.0 °F 45% 29.76 in 10.0 mi NW 4.6 mph - N/A   Clear
12:35 AM 46.4 °F - 28.4 °F 50% 29.76 in 10.0 mi Calm Calm - N/A   Clear
12:55 AM 48.4 °F - 28.4 °F 46% 29.76 in 10.0 mi Calm Calm - N/A   Clear
1:15 AM 48.0 °F - 28.0 °F 46% 29.74 in 10.0 mi East 8.1 mph - N/A   Clear
1:35 AM 46.6 °F - 28.6 °F 50% 29.75 in 10.0 mi Calm Calm - N/A   Clear
1:55 AM 43.9 °F - 29.1 °F 56% 29.75 in 10.0 mi Calm Calm - N/A   Clear
2:15 AM 45.1 °F - 29.7 °F 55% 29.75 in 10.0 mi Calm Calm - N/A   Clear
2:35 AM 40.3 °F - 26.8 °F 59% 29.75 in 10.0 mi Calm Calm - N/A   Clear
2:55 AM 42.3 °F 38.6 °F 29.7 °F 61% 29.74 in 10.0 mi South 5.8 mph - N/A   Clear
3:15 AM 40.3 °F 38.2 °F 28.9 °F 64% 29.74 in 10.0 mi West 3.5 mph - N/A   Clear
3:35 AM 41.0 °F 38.0 °F 29.7 °F 64% 29.74 in 10.0 mi West 4.6 mph - N/A   Clear
3:55 AM 39.2 °F 37.0 °F 28.9 °F 67% 29.74 in 10.0 mi WNW 3.5 mph - N/A   Clear
4:15 AM 41.5 °F - 29.8 °F 63% 29.74 in 10.0 mi Calm Calm - N/A   Clear
4:35 AM 40.1 °F - 30.2 °F 68% 29.75 in 10.0 mi Calm Calm - N/A   Clear
4:55 AM 36.5 °F - 27.3 °F 69% 29.76 in 10.0 mi Calm Calm - N/A   Clear
5:15 AM 38.1 °F 35.7 °F 28.8 °F 69% 29.76 in 10.0 mi East 3.5 mph - N/A   Clear
5:35 AM 35.1 °F - 26.2 °F 70% 29.76 in 10.0 mi Calm Calm - N/A   Clear
5:55 AM 37.4 °F - 28.4 °F 70% 29.76 in 10.0 mi Calm Calm - N/A   Clear
6:15 AM 36.7 °F - 27.0 °F 68% 29.77 in 10.0 mi Calm Calm - N/A   Clear
6:35 AM 32.5 °F - 24.8 °F 73% 29.77 in 10.0 mi Calm Calm - N/A   Clear
6:55 AM 34.3 °F - 25.0 °F 69% 29.78 in 10.0 mi Calm Calm - N/A   Clear
7:15 AM 34.2 °F - 25.3 °F 70% 29.79 in 10.0 mi Calm Calm - N/A   Clear
7:35 AM 33.1 °F 28.7 °F 25.9 °F 75% 29.80 in 10.0 mi SSE 4.6 mph - N/A   Clear
7:55 AM 33.4 °F 29.1 °F 25.7 °F 73% 29.81 in 10.0 mi SW 4.6 mph - N/A   Clear
8:15 AM 35.1 °F - 26.4 °F 71% 29.82 in 10.0 mi Calm Calm - N/A   Clear
8:35 AM 37.9 °F - 27.7 °F 67% 29.83 in 10.0 mi Calm Calm - N/A   Clear
8:55 AM 43.0 °F - 29.8 °F 60% 29.83 in 10.0 mi Calm Calm - N/A   Clear
9:15 AM 48.4 °F - 30.6 °F 50% 29.84 in 10.0 mi Calm Calm - N/A   Clear
9:35 AM 54.1 °F - 31.3 °F 42% 29.84 in 7.0 mi SE 6.9 mph - N/A   Clear
9:55 AM 56.5 °F - 31.1 °F 38% 29.84 in 10.0 mi SE 5.8 mph - N/A   Clear
10:15 AM 59.4 °F - 31.6 °F 35% 29.85 in 10.0 mi South 3.5 mph - N/A   Clear
10:35 AM 62.1 °F - 31.1 °F 31% 29.85 in 10.0 mi Calm Calm - N/A   Clear
10:55 AM 64.8 °F - 31.1 °F 28% 29.85 in 10.0 mi Calm Calm - N/A   Clear
11:15 AM 65.8 °F - 31.5 °F 28% 29.85 in 10.0 mi SW 4.6 mph - N/A   Clear
11:35 AM 66.9 °F - 31.8 °F 27% 29.84 in 10.0 mi Calm Calm - N/A   Clear
11:55 AM 68.4 °F - 32.0 °F 26% 29.83 in 10.0 mi Calm Calm - N/A   Clear
12:15 PM 69.4 °F - 32.0 °F 25% 29.83 in 10.0 mi ENE 3.5 mph - N/A   Clear
12:35 PM 70.9 °F - 31.1 °F 23% 29.81 in 10.0 mi West 8.1 mph - N/A   Clear
12:55 PM 71.2 °F - 31.5 °F 23% 29.79 in 10.0 mi WNW 8.1 mph - N/A   Clear
1:15 PM 72.5 °F - 31.3 °F 22% 29.78 in 10.0 mi NW 5.8 mph - N/A   Clear
1:35 PM 73.0 °F - 30.7 °F 21% 29.77 in 10.0 mi West 9.2 mph - N/A   Clear
1:55 PM 72.5 °F - 30.6 °F 21% 29.76 in 10.0 mi SW 4.6 mph - N/A   Clear
2:15 PM 73.6 °F - 30.9 °F 21% 29.75 in 10.0 mi East 3.5 mph - N/A   Clear
2:35 PM 73.9 °F - 30.7 °F 20% 29.74 in 10.0 mi Calm Calm - N/A   Clear
2:55 PM 74.7 °F - 30.6 °F 20% 29.73 in 10.0 mi SSE 4.6 mph - N/A   Clear
3:15 PM 72.7 °F - 30.0 °F 21% 29.73 in 10.0 mi Calm Calm - N/A   Clear
3:35 PM 73.2 °F - 30.4 °F 21% 29.73 in 10.0 mi Calm Calm - N/A   Clear
3:55 PM 72.7 °F - 29.8 °F 21% 29.73 in 10.0 mi Calm Calm - N/A   Clear
4:15 PM 74.1 °F - 30.2 °F 20% 29.73 in 10.0 mi East 6.9 mph - N/A   Clear
4:35 PM 73.6 °F - 30.2 °F 20% 29.73 in 10.0 mi East 5.8 mph - N/A   Clear
4:55 PM 73.0 °F - 30.0 °F 20% 29.73 in 10.0 mi East 3.5 mph - N/A   Clear
5:15 PM 72.3 °F - 30.0 °F 21% 29.73 in 10.0 mi East 6.9 mph - N/A   Clear
5:35 PM 71.2 °F - 30.2 °F 22% 29.74 in 10.0 mi ENE 3.5 mph - N/A   Clear
5:55 PM 69.1 °F - 30.4 °F 24% 29.74 in 10.0 mi East 4.6 mph - N/A   Clear
6:15 PM 69.1 °F - 30.4 °F 24% 29.75 in 10.0 mi East 6.9 mph - N/A   Clear
6:35 PM 66.4 °F - 30.0 °F 26% 29.75 in 10.0 mi ENE 5.8 mph - N/A   Clear
6:55 PM 65.7 °F - 29.8 °F 26% 29.76 in 10.0 mi East 6.9 mph - N/A   Clear
7:15 PM 62.1 °F - 29.1 °F 29% 29.77 in 10.0 mi ENE 5.8 mph - N/A   Clear
7:35 PM 58.6 °F - 28.4 °F 32% 29.77 in 10.0 mi NE 6.9 mph - N/A   Clear
7:55 PM 60.3 °F - 29.8 °F 32% 29.78 in 10.0 mi NNE 8.1 mph - N/A   Clear
8:15 PM 61.0 °F - 30.0 °F 31% 29.79 in 10.0 mi NNE 6.9 mph - N/A   Clear
8:35 PM 59.7 °F - 31.8 °F 35% 29.80 in 10.0 mi NE 15.0 mph - N/A   Clear
8:55 PM 57.6 °F - 32.0 °F 38% 29.82 in 10.0 mi NE 11.5 mph - N/A   Scattered Clouds
9:15 PM 56.3 °F - 32.0 °F 40% 29.82 in 10.0 mi ENE 12.7 mph 18.4 mph N/A   Scattered Clouds
9:35 PM 55.2 °F - 31.6 °F 41% 29.84 in 10.0 mi NNE 11.5 mph - N/A   Scattered Clouds
9:55 PM 54.5 °F - 31.8 °F 42% 29.84 in 10.0 mi NE 13.8 mph 17.3 mph N/A   Scattered Clouds
10:15 PM 53.2 °F - 32.0 °F 44% 29.85 in 10.0 mi NE 12.7 mph - N/A   Scattered Clouds
10:35 PM 52.3 °F - 32.0 °F 46% 29.86 in 10.0 mi NNE 10.4 mph 18.4 mph N/A   Scattered Clouds
10:55 PM 52.0 °F - 32.0 °F 47% 29.88 in 10.0 mi NNE 9.2 mph - N/A   Clear
11:15 PM 50.9 °F - 31.6 °F 48% 29.89 in 10.0 mi NNE 10.4 mph - N/A   Scattered Clouds
11:35 PM 50.0 °F - 30.6 °F 47% 29.91 in 10.0 mi North 10.4 mph - N/A   Overcast
11:55 PM 48.7 °F - 29.3 °F 47% 29.93 in 10.0 mi NNE 16.1 mph 20.7 mph N/A   Overcast